Regional Weather Roundup
Issued by NWS San Diego, CA

Home | Current Version | Previous Version | Text Only | Print | Product List | Glossary On
Versions: 1 2 3 4 5 6 7 8 9 10 11 12 13 14 15 16 17 18 19 20 21 22 23 24 25 26 27 28 29 30 31 32 33 34 35 36 37 38 39 40 41 42 43 44 45 46 47 48 49 50
000
ASUS46 KSGX 232111
RWRSGX
SAN DIEGO HOURLY WEATHER ROUNDUP
NATIONAL WEATHER SERVICE SAN DIEGO CA
200 PM PDT MON OCT 23 2017

NOTE: "FAIR" INDICATES FEW OR NO CLOUDS BELOW 12,000 FEET WITH NO
SIGNIFICANT WEATHER AND/OR OBSTRUCTIONS TO VISIBILITY.

CAZ042-043-060-061-PZZ750-775-232200-

GREATER SAN DIEGO AREA

CITY           SKY/WX    TMP DP  RH WIND       PRES   REMARKS
SAN DIEGO AP   MOSUNNY   91  36  14 NW9       30.00F
NATIONAL CITY    N/A     94  43  16 W3        30.00F
CHULA VISTA      N/A     97  40  14 W5        29.91F
IMPERIAL BEACH SUNNY     89  41  18 W7        29.99F
BROWN FIELD    SUNNY     98  34  10 W8        30.01F
MIRAMAR MCAS   SUNNY    103  33   9 NW9       30.01F HX  96
MONTGOMERY FLD SUNNY    101  29   8 W8        30.00F

$$

NORTH SAN DIEGO COUNTY

CITY           SKY/WX    TMP DP  RH WIND       PRES   REMARKS
CAMP PENDLETON SUNNY     99  35  10 SW6       29.98F
OCEANSIDE AP   SUNNY     89  44  20 W10       29.98F
OCEANSIDE HBR    N/A     75  64  67 SW3       30.02F
VISTA            N/A     94  42  16 W3        29.97F
CARLSBAD       SUNNY     85  43  22 W6        30.00F
DEL MAR          N/A     84  58  41 CALM      30.02F
LA JOLLA SCRIP   N/A     76  61  59 NW3       30.00F
FALLBROOK        N/A    101  28   7 SW2       30.00F HX  95
ESCONDIDO        N/A     99  47  17 W7        30.00F HX  95
SAN MARCOS       N/A     96  47  18 NW5       30.02F
POWAY            N/A    101  39  12 SW8       30.00F HX  96

$$

EAST SAN DIEGO COUNTY

CITY           SKY/WX    TMP DP  RH WIND       PRES   REMARKS
RAMONA         SUNNY    101  17   5 NE12G30   30.07F
SANTEE LAKES     N/A    101  39  12 SW1       29.97F HX  96
LA MESA          N/A     98  37  12 N9        29.93F
JAMUL            N/A    100  41  13 CALM      30.00F HX  95
DESCANSO N       N/A     88  29  12 E18       29.96F
CAMPO            N/A     91  17   6 NE15G23   30.13F

$$

ORANGE COUNTY AND THE LOS ANGELES BASIN

CITY           SKY/WX    TMP DP  RH WIND       PRES   REMARKS
JOHN WAYNE AP  SUNNY     95  43  16 W7        29.99F
LAGUNA BEACH     N/A     88  55  32 S2        29.95F
LAKE FOREST FR   N/A    103  28   7 W3        29.86F HX  96
HUNTINGTON BCH   N/A     85  60  43 SW2       30.01F
LOS ALAMITOS   SUNNY     95  49  21 SW9       29.99F
FULLERTON      SUNNY    106  18   4 E7        29.99F HX  97
LONG BEACH     SUNNY     99  46  16 S3        30.00F HX  95
L.A. AP        SUNNY     99  48  17 W13       30.01F HX  95
L.A. DOWNTOWN  SUNNY    100  29   8 CALM      30.00F

$$

THE INLAND EMPIRE

CITY           SKY/WX    TMP DP  RH WIND       PRES   REMARKS
CORONA         SUNNY    103  28   7 NE15G22   30.04  HX  96
CHINO          SUNNY    103  23   6 E12G28    30.04F HX  95
ONTARIO        SUNNY    103  17   4 E15G24    30.05F HX  95
RIVERSIDE AP   SUNNY    100  28   8 N10G23    30.06F
MORENO VALLEY    N/A     99  29   8 NW5       28.21F
MARCH ARB      SUNNY     99  22   6 E9        30.10F
HORSETHIEF CYN   N/A     97  19   6 NE5       30.05F
PERRIS           N/A     96  27   8 E9          N/A
HEMET EAST       N/A     95  26   8 SW2       30.09F
FRENCH VALLEY  FAIR      99  21   6 NW6       30.07F
TEMECULA         N/A     99  22   6 S6        30.06F

$$

SAN BERNARDINO AND RIVERSIDE COUNTY MOUNTAINS

CITY           SKY/WX    TMP DP  RH WIND       PRES   REMARKS
BIG BEAR AP    SUNNY     68  23  18 NE9       30.51F
ANGELUS OAKS     N/A     83  35  18 CALM      30.03F

$$

SOUTHERN DESERT INCLUDING THE COACHELLA VALLEY

CITY           SKY/WX    TMP DP  RH WIND       PRES   REMARKS
PALM SPRINGS   SUNNY    102  23   6 N8        30.09F HX  95
THOUSAND PALMS   N/A    101  29   8 NE5       30.04F
PALM DESERT      N/A    104  32   8 CALM        N/A  HX  97
THERMAL        SUNNY    103  21   5 W9        30.01F HX  95
BLYTHE         SUNNY     97  24   7 N16       30.06F
IMPERIAL AP    SUNNY     98  25   7 N8        30.03F
EL CENTRO NAS  SUNNY     98  18   5 VRB6      30.05F
YUMA AZ        SUNNY     95  28   9 N17G23    30.03F
MEXICALI       SUNNY     97  25   7 NW9       30.04

$$

UPPER DESERT

CITY           SKY/WX    TMP DP  RH WIND       PRES   REMARKS
VICTORVILLE AP SUNNY     88  25  10 NE15G22   30.28F
HESPERIA         N/A     89  28  11 N3        30.31F
PALMDALE       SUNNY     89  23   9 NE9G17    30.26F
LANCASTER      SUNNY     88  20   8 E16       30.26F
EDWARDS AFB    SUNNY     85  20   9 N3        30.24F
DAGGETT        SUNNY     88  27  11 E7        30.24F
29 PALMS N     SUNNY     90  19   7 N10       30.28F
NEEDLES        SUNNY     96  24   7 N23G35    30.12F

$$

REGIONAL REPORTS

CITY           SKY/WX    TMP DP  RH WIND       PRES   REMARKS
SANTA BARBARA  SUNNY     94  30  10 W8        30.03F
SANDBERG       SUNNY     82  21  10 E21G30    30.38F
LAS VEGAS NV   SUNNY     89  32  13 NE13G22   30.27F
PHOENIX AZ     SUNNY     94  24   8 W7        30.05F
ENSENADA NW      N/A     81  32  16 CALM      29.97F

$$

OFFSHORE ISLANDS

CITY           SKY/WX    TMP DP  RH WIND       PRES   REMARKS
CATALINA ARPT  SUNNY     95  23   7 NE6       30.12F
SAN CLEMENTE I SUNNY     85  51  31 SW5       30.04F
SAN NICOLAS IS SUNNY     92  28  10 N3        30.05F

$$

MARINE AND OFFSHORE BUOY REPORTS

STATION/POSITION SKY/WX   TEMP    WIND        PRES    VSBY  SWELL
                          AIR SEA DIR/SP/G                  HT/PER/DIR
                          (F)     (DEG/KT/KT) (MB)    (MI)  (FT/S/D)
TANNER BANKS               67 65  280/  4/  6 1016.8F        10/310/12
S CLEMENTE BASIN           73 72  320/  6/  6 1016.2F         7/290/13
SAN NICOLAS IS.               65                N/A           7/160/17
SO. S. ROSA ISLA           67 64  290/  6/  8 1017.1F         8/290/12
W. S. BARBARA CH           63 56  320/  6/  8 1017.0
M. S. BARBARA CH           71 63  310/  6/  6 1017.6
S. MONICA BASIN               68  260/  6/  8 1016.1
S PEDRO CHANNEL               69                N/A           3/170/17
CMP PENDLETON NS              70                N/A           3/200/17
OCEANSIDE OFFSHR              71                N/A           3/180/17
TORREY PINES OTR              71                N/A           3/190/15
SAN DIEGO BAY                 72              1016.1F
POINT LOMA SOUTH              70                N/A           5/280/13

$$





USA.gov is the U.S. government's official web portal to all federal, state and local government web resources and services.